Location: Holbach
(51.5399°N, 10.6036°E)
Time: 09:38:03
(UTC+00:00)

Cosmos 1092 Rocket - Pass Details

Date: 25 June 2021
Orbit: 955 x 994 km, 82.9° (Epoch: 28 July)

Event Time Altitude Azimuth Distance (km) Brightness Sun altitude
Exits shadow 01:31:50 11° 223° (SW) 2,585 5.6 -9.7°
Maximum altitude 01:37:16 39° 290° (WNW) 1,397 4.8 -9.3°
Drops below altitude 10° 01:43:02 10° 359° (N) 2,709 7.3 -8.8°
Sets 01:45:45 0° 7° (N) 3,664 8.3 -8.6°
